Temperature
16 16 16 16 16 15 15 15 14 14 14 14 14 13 13 12 11 11 10 10 10 9 9 9 9 9 8 8 8 8 7 7 6 7 7 6 6 6 5 5 5 4 4
16 16 16 16 15 15 15 15 14 14 14 14 13 13 12 12 11 11 10 10 10 10 9 9 9 9 8 8 8 7 7 7 6 6 6 6 5 5 5 4 4 4 3
15 15 15 15 15 15 15 15 14 14 13 13 13 13 12 12 11 11 10 10 10 10 9 9 9 8 8 8 8 7 7 7 6 6 6 5 5 5 4 4 4 3 3
15 15 15 15 15 15 15 14 14 14 13 13 13 12 12 12 11 11 10 10 10 9 9 9 9 8 8 8 7 7 7 6 6 5 5 5 4 4 4 3 3 3 3
14 15 15 15 15 14 14 14 13 13 13 13 12 12 12 11 11 11 10 10 10 9 9 9 8 8 8 7 7 7 6 6 5 5 4 4 4 3 3 3 2 2 2
14 14 14 14 14 14 14 13 13 13 12 12 12 12 11 11 11 10 10 10 9 9 9 9 8 8 8 7 7 6 6 5 5 4 4 3 3 3 2 2 1 1 1
13 14 14 14 13 13 13 13 12 12 12 12 12 11 11 11 11 10 10 9 9 9 9 8 8 8 7 7 7 6 6 5 4 4 4 3 3 2 2 1 1 0 -0
13 13 13 13 13 13 12 12 12 12 12 12 11 11 11 10 10 10 10 9 9 8 8 8 8 7 7 7 6 6 5 5 4 4 3 3 2 2 1 1 -0 -0 -0
12 12 12 12 12 12 12 12 12 12 11 11 11 11 10 10 10 10 9 9 8 8 8 8 7 7 7 6 6 5 5 4 4 3 3 2 2 1 1 0 -0 -1 -1
11 12 12 12 12 12 12 12 12 11 11 11 11 10 10 10 10 9 9 9 8 8 8 7 7 6 6 6 5 5 4 4 3 3 2 2 1 1 0 -0 -1 -2 -2
10 11 11 11 11 11 11 11 11 11 10 10 10 10 10 9 9 9 9 9 8 8 7 7 7 6 6 5 5 4 4 3 3 2 2 1 1 0 -0 -1 -2 -2 -3
10 10 10 10 10 10 10 10 10 10 10 10 9 9 9 9 9 9 9 8 8 8 7 7 6 6 5 5 4 4 3 3 2 2 1 1 0 -0 -1 -1 -2 -3 -3
9 9 10 10 10 10 10 10 9 9 9 9 9 9 9 9 9 9 8 8 7 7 7 6 6 5 5 4 4 3 3 2 2 2 1 0 -0 -1 -1 -2 -2 -3 -3
8 8 9 9 9 9 9 9 9 9 9 9 9 9 8 8 8 8 8 7 7 6 6 6 5 5 4 4 3 3 2 2 1 1 0 -0 -1 -1 -2 -2 -3 -3 -3
7 7 8 8 8 8 8 8 8 8 9 9 9 9 9 8 8 8 8 7 7 7 6 5 5 4 4 3 3 2 2 1 1 0 -0 -1 -1 -2 -2 -3 -3 -3 -4
6 7 7 7 7 7 7 7 7 7 8 8 8 8 8 8 8 7 7 7 6 6 5 5 4 4 3 3 2 2 1 1 1 -0 -1 -1 -2 -2 -3 -3 -4 -4 -4
6 6 6 6 6 6 6 6 6 6 6 7 7 7 7 7 7 7 6 6 5 5 5 5 4 4 3 2 2 1 1 1 0 -1 -1 -2 -2 -3 -3 -3 -4 -4 -4
5 5 5 6 6 6 6 6 6 6 6 6 6 6 6 6 6 6 6 5 5 4 4 4 4 3 3 2 2 1 1 0 -0 -1 -2 -2 -2 -3 -3 -4 -4 -4 -5
4 4 5 5 5 5 5 5 5 5 5 5 5 5 5 5 5 5 5 5 5 5 4 4 3 3 2 2 1 1 0 -0 -1 -1 -2 -2 -3 -3 -4 -4 -4 -5 -5
4 4 4 4 4 4 4 4 4 4 4 4 5 5 5 5 4 4 4 4 5 4 4 3 3 2 2 1 1 0 0 -0 -1 -2 -2 -3 -3 -4 -4 -4 -5 -5 -5
3 3 3 3 3 4 4 4 4 4 4 4 4 4 4 4 4 4 4 4 4 4 3 3 3 2 1 1 0 0 -0 -1 -1 -2 -2 -3 -3 -4 -4 -5 -5 -5 -6
2 3 3 3 3 3 3 3 3 3 3 4 3 3 3 4 4 4 4 4 3 3 3 2 2 2 1 1 0 -0 -1 -1 -2 -2 -3 -3 -4 -4 -4 -5 -5 -5 -6
2 2 2 2 2 3 3 3 3 3 3 3 3 3 3 3 3 3 3 3 3 2 2 2 1 1 1 0 -0 -1 -1 -2 -2 -2 -3 -3 -4 -4 -5 -5 -5 -6 -6
1 2 2 2 2 2 2 2 2 2 2 3 3 3 3 3 3 3 3 2 2 2 2 1 1 1 0 -0 -1 -1 -2 -2 -2 -3 -3 -4 -4 -4 -5 -5 -5 -6 -6
1 1 1 1 1 2 2 2 2 2 2 2 2 2 2 2 2 2 2 2 2 1 1 1 1 0 -0 -1 -1 -2 -2 -2 -3 -3 -3 -4 -4 -5 -5 -5 -6 -6 -6
0 1 1 1 1 1 1 1 1 1 2 2 2 2 2 2 2 2 2 1 1 1 1 1 0 -0 -1 -1 -2 -2 -2 -3 -3 -3 -4 -4 -4 -5 -5 -6 -6 -6 -6
Wind_Speed
17 18 18 18 19 17 16 16 15 13 14 15 15 15 14 14 13 12 11 11 11 10 8 9 9 7 6 5 4 4 5 5 6 4 2 1 1 3 5 6 7 8 10
14 16 17 17 16 17 17 16 15 15 14 15 14 14 14 14 13 13 13 12 12 11 10 9 9 7 8 6 5 6 5 5 5 6 3 2 3 3 3 4 6 7 9
11 13 15 15 16 17 17 15 15 15 14 13 14 15 14 14 14 13 13 12 12 11 11 11 9 8 8 6 6 6 5 4 4 4 4 2 2 2 3 4 5 5 8
10 12 14 16 16 16 15 15 15 15 15 15 14 14 13 13 13 12 12 11 10 10 9 9 9 9 9 8 7 6 5 4 3 3 3 2 2 2 2 3 5 4 6
9 11 13 13 13 13 13 13 14 14 14 14 13 12 12 11 11 12 12 11 10 9 8 8 8 9 9 8 6 5 5 4 3 2 2 2 2 2 3 2 4 5 5
8 10 10 10 11 12 13 13 13 13 13 13 13 13 13 10 13 16 13 10 10 9 8 7 6 7 8 8 8 7 7 5 4 3 2 3 3 3 2 2 3 4 4
7 7 9 10 11 11 11 12 13 13 12 13 13 13 13 13 16 17 16 11 9 9 8 7 5 6 7 6 6 6 5 4 5 4 3 3 3 2 1 2 2 3 4
5 6 7 9 10 10 10 12 12 11 11 12 12 12 11 12 16 16 16 10 8 8 8 8 8 7 7 8 6 5 3 2 3 2 3 3 2 1 1 1 2 3 4
5 6 7 9 10 10 11 11 10 10 10 10 10 11 11 11 15 16 15 8 7 7 6 7 8 7 10 11 8 6 4 2 2 3 3 2 2 2 2 2 2 3 3
5 6 7 9 10 11 11 9 7 8 9 9 9 9 11 10 14 17 16 8 8 6 5 6 8 9 11 12 8 7 6 4 3 2 3 3 4 4 3 1 0 1 2
3 4 6 8 9 9 8 7 8 8 9 9 9 8 8 10 14 17 17 10 9 8 6 5 6 11 12 11 9 6 6 6 4 3 2 2 2 2 2 3 1 1 2
3 4 6 7 7 7 9 8 8 9 9 9 8 7 6 8 11 14 16 13 11 9 7 6 7 12 12 11 8 7 9 7 4 3 2 1 1 1 2 3 4 3 3
3 4 6 7 7 8 9 9 8 8 8 8 8 7 6 6 8 13 15 15 13 8 7 10 11 13 11 8 9 10 8 5 4 3 2 1 0 0 1 2 3 4 4
4 5 6 7 7 7 7 8 8 8 8 8 8 8 7 6 7 8 8 9 11 9 8 11 13 12 9 8 7 6 4 4 3 3 2 1 1 1 1 2 2 3 3
4 5 6 6 7 6 5 5 7 7 9 10 9 9 9 8 9 13 12 9 9 10 10 7 5 5 5 4 4 4 3 3 3 2 2 2 1 1 1 2 1 2 2
4 5 5 5 5 5 5 4 4 5 8 10 10 9 7 9 14 15 15 16 17 18 11 7 7 6 6 6 5 4 3 3 3 3 2 2 1 1 1 2 2 2 2
4 4 4 5 6 6 6 6 5 5 7 9 11 11 11 14 16 16 17 17 18 17 8 7 7 7 6 6 5 4 3 3 3 3 3 2 1 1 0 1 2 2 3
3 5 5 5 5 6 6 6 6 6 5 4 6 12 14 15 16 17 18 15 10 8 6 7 7 7 6 6 5 4 4 4 3 3 2 2 2 1 0 1 1 2 2
3 4 4 4 5 5 5 6 6 6 6 5 5 7 12 13 15 16 15 8 9 7 6 6 6 6 6 6 6 5 5 4 4 3 3 2 2 1 1 1 1 2 2
2 5 5 5 5 5 6 6 6 6 6 6 7 7 8 8 8 8 6 6 7 7 7 7 6 6 6 6 6 6 5 4 4 3 3 2 2 2 1 1 1 1 2
2 4 6 5 5 5 6 6 6 7 6 6 6 7 11 8 8 8 7 7 7 7 7 7 7 7 7 6 6 6 6 5 4 4 3 3 2 2 1 1 0 0 1
3 4 4 5 5 5 5 5 6 6 7 7 6 7 11 6 6 7 6 6 6 6 6 7 7 6 7 7 7 7 6 5 5 4 4 3 3 2 1 1 0 0 1
3 4 4 4 4 6 5 5 6 6 7 7 7 7 6 6 6 6 6 6 6 6 7 7 7 6 6 7 7 7 7 7 6 6 5 4 3 2 2 1 1 0 1
4 5 5 5 5 5 5 6 6 6 7 7 7 7 6 6 6 7 7 6 6 7 7 7 8 9 10 8 7 7 7 7 8 8 7 6 4 3 2 2 1 1 0
4 5 5 5 5 5 6 6 6 6 7 7 7 6 6 6 6 7 7 7 8 7 8 8 8 9 11 11 9 8 9 10 9 8 7 6 5 4 3 3 2 1 1
5 5 5 5 5 6 6 6 6 6 6 6 6 6 7 7 7 7 7 7 8 7 8 8 9 11 12 11 11 11 12 11 11 10 9 7 5 4 4 3 3 2 2
Wind_Direction
200 201 201 203 202 199 199 199 198 192 187 188 189 191 193 194 192 194 198 193 199 203 199 203 212 203 205 207 202 203 210 206 245 267 258 273 272 290 310 309 305 303 306
202 201 201 201 199 198 200 199 194 191 190 189 187 189 193 194 193 195 199 197 199 203 203 203 211 202 206 206 203 211 217 212 225 262 275 274 272 286 302 306 312 311 306
200 199 199 197 196 199 200 195 192 190 188 186 186 191 193 194 194 197 197 198 200 203 202 204 206 199 209 208 207 214 217 213 214 240 267 271 283 315 315 309 308 306 312
197 198 198 198 198 199 197 192 190 189 187 188 189 192 192 192 193 193 193 195 198 200 201 202 202 200 207 205 208 211 205 201 204 230 261 279 292 318 316 307 312 315 314
193 198 200 198 195 192 190 189 187 186 188 187 186 188 187 189 192 189 190 192 193 195 197 199 200 197 200 198 198 196 188 193 196 221 252 284 291 312 301 295 301 315 307
194 198 195 189 188 188 188 184 182 184 184 183 186 187 188 192 187 183 184 188 190 191 192 190 186 186 190 190 188 182 179 185 197 202 225 253 269 272 285 306 310 329 310
196 192 188 183 185 187 182 179 182 183 181 184 186 186 190 190 180 178 178 181 184 188 186 180 177 177 175 174 172 164 168 171 177 180 203 232 246 252 266 292 293 295 282
190 186 182 179 180 177 177 181 182 180 182 185 186 186 186 185 177 176 173 177 179 182 182 179 176 173 172 162 153 150 153 164 174 173 184 206 213 214 205 256 278 295 290
187 186 183 179 176 175 178 180 179 176 179 181 181 181 183 183 175 171 164 171 173 176 174 172 170 170 169 158 152 151 144 137 106 118 104 83 63 50 61 53 7 347 313
200 193 183 176 174 178 180 175 168 170 174 171 173 178 179 179 171 167 162 168 169 168 162 166 169 169 167 161 161 162 167 173 141 108 73 56 49 46 50 58 210 323 314
194 179 175 172 172 172 167 163 160 159 162 166 168 172 175 173 168 167 165 171 170 165 164 167 171 166 164 163 162 169 171 153 144 132 109 71 46 33 17 3 335 240 268
167 168 168 162 158 157 157 157 158 160 163 164 162 160 163 164 165 169 168 168 163 163 166 164 163 159 158 156 157 151 140 131 127 120 109 78 29 351 336 340 341 333 286
162 168 164 156 157 160 161 160 159 162 165 166 165 165 162 158 163 164 163 162 158 156 153 152 150 149 147 148 146 141 136 133 134 132 141 171 264 300 359 355 354 357 348
173 169 162 160 157 158 160 162 165 170 168 166 167 167 162 159 159 159 157 153 149 145 140 140 137 134 131 131 133 133 132 142 142 149 155 138 92 54 20 1 347 348 349
173 168 164 162 159 157 156 165 170 179 177 172 174 171 168 174 176 164 158 158 157 150 139 129 129 136 138 132 126 124 126 130 126 125 129 120 103 59 357 352 357 358 345
178 171 166 161 157 154 147 126 114 155 159 163 167 167 167 161 158 159 157 154 150 147 138 146 153 156 159 158 154 145 141 142 140 138 138 140 151 171 330 345 356 351 327
187 176 170 164 162 160 158 156 143 111 123 142 150 153 155 155 157 157 154 152 152 149 147 156 161 164 163 161 161 160 162 154 145 144 147 153 154 164 283 338 346 341 329
188 176 173 167 163 165 163 160 158 157 151 136 142 149 151 153 155 155 152 146 153 157 156 160 164 165 163 162 161 157 151 147 144 146 148 152 153 163 189 295 312 322 322
194 176 167 160 158 160 158 154 151 150 152 150 141 144 147 148 151 155 155 160 163 167 163 160 159 160 159 158 157 156 156 157 154 152 154 157 164 166 188 265 300 333 350
195 173 168 161 159 160 160 158 157 156 157 159 160 156 150 147 154 161 166 161 161 162 161 161 159 156 156 157 157 155 154 154 155 154 157 160 167 173 182 203 255 303 312
180 169 162 159 165 168 168 167 165 163 165 164 163 167 165 163 166 167 169 169 165 163 161 160 158 157 157 157 156 156 156 159 160 160 163 166 168 172 183 191 225 309 329
176 172 168 165 166 167 165 164 163 163 162 160 158 161 163 159 162 165 167 163 157 155 154 154 156 160 163 165 163 160 161 164 165 164 165 166 169 168 161 148 97 20 353
167 162 162 161 160 162 162 163 163 163 162 164 162 161 163 165 165 163 159 154 150 147 145 146 149 151 149 151 156 161 167 173 174 169 166 165 166 165 159 155 143 94 350
164 164 164 161 159 164 166 167 166 163 162 162 163 165 166 165 161 154 150 147 146 145 144 145 150 153 150 147 150 157 161 161 160 162 160 158 158 155 151 147 144 141 55
167 167 166 166 166 167 166 165 164 162 162 162 162 162 159 158 154 150 149 147 146 146 144 141 143 147 150 150 152 156 158 155 153 151 149 144 147 149 149 145 139 124 90
167 166 166 166 167 169 167 166 164 161 161 160 159 158 157 156 152 149 149 148 146 143 141 140 143 145 147 149 152 154 154 153 151 148 141 136 140 145 141 134 128 115 110
Height
1403 1409 1414 1419 1424 1430 1435 1440 1445 1450 1455 1460 1464 1468 1472 1476 1479 1482 1485 1488 1491 1493 1495 1497 1499 1501 1502 1503 1503 1503 1503 1502 1500 1498 1498 1496 1494 1492 1490 1487 1484 1481 1478
1397 1402 1407 1412 1417 1423 1428 1433 1439 1444 1448 1453 1458 1462 1466 1469 1473 1476 1479 1482 1485 1487 1490 1492 1493 1495 1496 1497 1498 1498 1497 1497 1496 1493 1492 1491 1489 1487 1485 1482 1479 1476 1473
1390 1395 1400 1405 1410 1415 1421 1426 1432 1437 1442 1447 1451 1455 1459 1463 1466 1470 1473 1476 1479 1481 1484 1486 1488 1490 1490 1491 1492 1492 1492 1492 1491 1489 1487 1486 1484 1482 1480 1477 1475 1472 1469
1384 1388 1392 1397 1402 1408 1414 1419 1425 1430 1435 1440 1444 1449 1453 1457 1460 1464 1467 1470 1473 1476 1478 1480 1482 1484 1485 1486 1486 1486 1487 1486 1485 1484 1482 1481 1479 1477 1475 1472 1469 1467 1464
1378 1381 1386 1391 1396 1401 1407 1412 1418 1423 1428 1433 1438 1443 1447 1451 1454 1458 1461 1464 1467 1470 1472 1475 1476 1478 1479 1481 1481 1481 1481 1481 1480 1479 1478 1476 1474 1472 1470 1467 1464 1461 1459
1371 1375 1380 1385 1390 1395 1400 1406 1411 1417 1422 1427 1432 1436 1440 1444 1448 1452 1456 1459 1462 1464 1467 1469 1471 1473 1474 1475 1476 1476 1476 1476 1475 1475 1473 1472 1470 1469 1466 1464 1460 1457 1453
1366 1370 1374 1379 1384 1389 1395 1400 1405 1410 1416 1421 1425 1430 1434 1439 1443 1447 1451 1454 1456 1459 1461 1464 1466 1467 1469 1470 1471 1471 1471 1471 1471 1471 1469 1468 1466 1465 1462 1460 1457 1454 1451
1361 1365 1369 1374 1378 1384 1389 1394 1399 1405 1410 1415 1420 1424 1429 1433 1438 1441 1445 1449 1451 1454 1456 1459 1460 1462 1463 1465 1466 1466 1466 1466 1466 1466 1465 1464 1463 1461 1459 1457 1454 1451 1448
1356 1360 1365 1369 1374 1378 1383 1388 1394 1399 1404 1409 1414 1419 1423 1427 1432 1436 1440 1443 1446 1449 1451 1453 1455 1457 1459 1460 1461 1461 1462 1462 1462 1462 1461 1460 1459 1457 1455 1453 1450 1447 1443
1353 1356 1361 1365 1369 1374 1379 1384 1389 1394 1399 1404 1409 1414 1418 1422 1426 1431 1435 1438 1441 1444 1446 1448 1451 1453 1454 1455 1456 1457 1457 1458 1458 1458 1457 1456 1455 1454 1452 1450 1447 1444 1441
1350 1353 1357 1361 1365 1370 1375 1379 1384 1389 1395 1399 1404 1409 1413 1417 1421 1425 1429 1433 1436 1438 1441 1443 1446 1448 1450 1451 1452 1453 1454 1455 1454 1454 1453 1452 1451 1450 1448 1447 1444 1442 1439
1347 1349 1353 1357 1362 1366 1371 1375 1380 1385 1390 1394 1399 1404 1408 1413 1417 1420 1424 1428 1431 1434 1436 1439 1441 1444 1446 1447 1448 1449 1450 1451 1450 1450 1449 1449 1448 1447 1446 1444 1442 1440 1437
1343 1346 1350 1354 1358 1363 1367 1371 1376 1380 1384 1389 1394 1398 1403 1407 1412 1416 1419 1423 1427 1430 1432 1435 1438 1440 1442 1443 1445 1446 1447 1447 1447 1446 1446 1446 1445 1444 1443 1441 1440 1438 1436
1340 1343 1347 1350 1354 1358 1363 1367 1371 1375 1379 1383 1388 1393 1397 1402 1406 1410 1414 1418 1422 1425 1428 1431 1434 1436 1438 1440 1441 1442 1443 1443 1443 1443 1443 1443 1442 1441 1440 1438 1437 1435 1433
1338 1340 1344 1347 1351 1354 1358 1363 1367 1371 1375 1379 1383 1388 1392 1396 1401 1406 1409 1413 1417 1420 1424 1427 1430 1432 1434 1436 1437 1438 1439 1440 1440 1440 1440 1440 1439 1439 1437 1436 1434 1432 1430
1335 1337 1340 1343 1347 1351 1355 1359 1364 1368 1372 1377 1381 1385 1389 1394 1398 1402 1406 1410 1414 1417 1420 1422 1425 1427 1430 1431 1433 1434 1436 1436 1437 1437 1437 1437 1437 1436 1435 1434 1432 1430 1428
1332 1335 1338 1340 1344 1347 1351 1355 1359 1364 1369 1373 1377 1381 1386 1390 1394 1398 1403 1407 1410 1413 1416 1418 1421 1423 1426 1428 1430 1431 1432 1433 1434 1434 1435 1435 1434 1434 1433 1431 1430 1429 1427
1330 1332 1335 1337 1340 1344 1347 1351 1355 1359 1363 1368 1373 1378 1382 1386 1391 1395 1399 1403 1405 1409 1411 1414 1417 1420 1422 1424 1426 1428 1429 1430 1431 1432 1432 1432 1432 1431 1430 1429 1428 1427 1425
1326 1329 1331 1334 1338 1341 1345 1348 1352 1356 1360 1364 1368 1373 1378 1383 1387 1391 1395 1398 1401 1404 1407 1410 1413 1416 1418 1421 1423 1425 1426 1427 1428 1429 1429 1429 1429 1429 1428 1428 1427 1425 1424
1323 1326 1328 1331 1334 1338 1341 1345 1349 1353 1357 1360 1364 1368 1373 1378 1381 1386 1390 1394 1397 1400 1404 1407 1410 1412 1415 1417 1419 1421 1423 1424 1425 1426 1426 1427 1427 1427 1427 1426 1425 1424 1422
1320 1322 1325 1328 1331 1334 1338 1342 1345 1349 1352 1356 1360 1365 1370 1374 1377 1381 1386 1389 1393 1396 1400 1403 1406 1409 1411 1414 1416 1418 1420 1421 1422 1423 1424 1424 1425 1425 1425 1424 1424 1422 1421
1317 1319 1321 1325 1328 1332 1335 1339 1342 1345 1349 1353 1357 1362 1367 1371 1375 1378 1382 1386 1389 1393 1397 1400 1403 1406 1408 1410 1412 1414 1416 1418 1419 1420 1421 1422 1423 1423 1423 1423 1422 1421 1420
1313 1316 1318 1321 1325 1329 1332 1336 1339 1342 1346 1350 1354 1358 1363 1367 1371 1375 1379 1382 1386 1390 1393 1397 1400 1402 1405 1407 1409 1411 1413 1415 1416 1418 1419 1419 1420 1421 1421 1421 1420 1419 1419
1310 1313 1315 1318 1322 1325 1329 1332 1336 1339 1343 1347 1351 1355 1359 1363 1367 1371 1375 1379 1383 1387 1390 1393 1396 1399 1401 1404 1406 1408 1410 1412 1414 1415 1416 1417 1418 1419 1419 1419 1419 1418 1418
1307 1310 1312 1315 1319 1322 1325 1329 1332 1336 1339 1343 1347 1351 1356 1360 1364 1368 1372 1376 1380 1384 1387 1390 1393 1396 1399 1401 1403 1405 1407 1409 1411 1413 1414 1415 1416 1417 1417 1418 1418 1418 1417
1304 1306 1309 1312 1315 1319 1322 1325 1329 1332 1336 1340 1344 1348 1353 1357 1361 1365 1369 1372 1376 1380 1383 1387 1390 1393 1396 1399 1401 1403 1405 1407 1409 1411 1412 1413 1414 1415 1416 1416 1417 1417 1417